This demonstration page uses our WeatherBlox Daily Observations layout. Learn more.

Left ArrowRight Arrow

38.20091, -84.87328

Hourly Observations for August 6, 2021

Temp ( °F °C ) Dew Point ( °F °C ) Humidity (%) Winds ( mph kmh ) Pressure ( in mb ) Visibility ( mi km ) Precip ( " mm )
12:53 am 00:53 Clear 67 19.4 61 16.1 81 81 Calm 30.09 1019 10 16 0.00 0.00
1:53 am 01:53 Clear 65 18.3 60 15.6 84 84 Calm 30.09 1019 10 16 0.00 0.00
2:53 am 02:53 Clear 64 17.8 62 16.7 93 93 NNW 3 6 30.08 1019 10 16 0.00 0.00
3:53 am 03:53 Clear 63 17.2 60 15.6 90 90 Calm 30.08 1019 10 16 0.00 0.00
4:53 am 04:53 Partly Cloudy 62 16.7 60 15.6 93 93 Calm 30.08 1019 10 16 0.00 0.00
5:53 am 05:53 Partly Cloudy 63 17.2 60 15.6 90 90 NNW 3 6 30.09 1019 9 14 0.00 0.00
6:53 am 06:53 Sunny 63 17.2 60 15.6 90 90 Calm 30.10 1019 8 13 0.00 0.00
7:53 am 07:53 Sunny 65 18.3 62 16.7 90 90 Calm 30.11 1020 8 13 0.00 0.00
8:53 am 08:53 Sunny 71 21.7 65 18.3 81 81 ESE 3 6 30.11 1020 10 16 0.00 0.00
9:53 am 09:53 Sunny 76 24.4 65 18.3 69 69 S 8 13 30.12 1020 10 16 0.00 0.00
10:53 am 10:53 Mostly Sunny 80 26.7 66 18.9 62 62 SW 7 11 30.12 1020 10 16 0.00 0.00
11:53 am 11:53 Mostly Cloudy 80 26.7 66 18.9 62 62 WSW 7 11 30.13 1020 10 16 0.00 0.00
12:53 pm 12:53 Mostly Sunny 82 27.8 66 18.9 58 58 WSW 7 11 30.12 1020 10 16 0.00 0.00
1:53 pm 13:53 Sunny 85 29.4 64 17.8 50 50 VRB 5 7 30.09 1019 10 16 0.00 0.00
2:53 pm 14:53 Mostly Sunny 87 30.6 63 17.2 45 45 SW 3 6 30.08 1019 10 16 0.00 0.00
3:53 pm 15:53 Sunny 86 30 61 16.1 43 43 SW 7 11 30.06 1018 10 16 0.00 0.00
4:53 pm 16:53 Mostly Sunny 86 30 61 16.1 43 43 undefined N/A 30.04 1017 10 16 0.00 0.00
5:53 pm 17:53 Sunny 85 29.4 62 16.7 46 46 SW 7 11 30.04 1017 10 16 0.00 0.00
6:53 pm 18:53 Sunny 83 28.3 67 19.4 59 59 S 7 11 30.04 1017 10 16 0.00 0.00
7:53 pm 19:53 Mostly Sunny 81 27.2 68 20 65 65 SSW 6 9 30.04 1017 10 16 0.00 0.00
8:53 pm 20:53 Clear 78 25.6 70 21.1 76 76 S 6 9 30.04 1017 10 16 0.00 0.00
9:53 pm 21:53 Clear 76 24.4 70 21.1 82 82 S 6 9 30.05 1018 10 16 0.00 0.00
10:53 pm 22:53 Clear 74 23.3 69 20.6 85 85 S 6 9 30.06 1018 10 16 0.00 0.00
11:53 pm 23:53 Clear 72 22.2 69 20.6 91 91 SW 6 9 30.07 1018 10 16 0.00 0.00

Powered by AerisWeather